Weather History for KICR - April, 2014

Change the Weather History Date:

Wednesday, April 30, 2014

  Actual Average Record
Temperature  
Mean Temperature 43 °F 53 °F  
Max Temperature 50 °F 65 °F - ()
Min Temperature 35 °F 41 °F - ()
Degree Days  
Heating Degree Days 22 12  
Month to date heating degree days 479 519  
Since 1 July heating degree days 6762 6404  
Cooling Degree Days 0 0  
Month to date cooling degree days 3 2  
Year to date cooling degree days 3 2  
Moisture  
Dew Point 31 °F    
Average Humidity 64    
Maximum Humidity 89    
Minimum Humidity 39    
Precipitation  
Precipitation T in 0.11 in - ()
Month to date precipitation 2.31 2.49  
Year to date precipitation 2.43 4.63  
Sea Level Pressure  
Sea Level Pressure 30.09 in    
Wind  
Wind Speed 23 mph (NW)    
Max Wind Speed 36 mph    
Max Gust Speed 46 mph    
Visibility 10 miles    
Events      
T = Trace of Precipitation, MM = Missing Value Source: NWS Daily Summary

Daily Weather History Graph

Daily Weather History Graph

Search for Another Location

Airport or City:

Trip Planner

Search our weather history database for the weather conditions in past years. The results will help you decide how hot, cold, wet, or windy it might be!

Date:

Astronomy

Apr. 30, 2014 Rise Set
Actual Time 6:33 AM CDT 8:40 PM CDT
Civil Twilight 6:02 AM CDT 9:11 PM CDT
Nautical Twilight 5:24 AM CDT 9:49 PM CDT
Astronomical Twilight 4:42 AM CDT 10:32 PM CDT
Moon 7:35 AM CDT (4/30) 10:22 PM CDT (4/30)
Length of Visible Light 15h 08m
Length of Day
14h 06m
New Moon, 2% of the Moon is Illuminated
Apr 30
New Moon
May 6
First Quarter
May 14
Full
May 21
Last Quarter
May 28
New

Hourly Weather History & Observations

Time (CDT) Temp. Windchill Dew Point Humidity Pressure Visibility Wind Dir Wind Speed Gust Speed Precip Events Conditions
12:53 AM 39.9 °F 31.8 °F 33.1 °F 77% 30.10 in 10.0 mi NW 15.0 mph - N/A   Scattered Clouds
1:53 AM 39.0 °F 29.3 °F 33.1 °F 79% 30.10 in 10.0 mi NW 19.6 mph - N/A   Clear
2:53 AM 37.9 °F 27.3 °F 33.1 °F 83% 30.09 in 10.0 mi NW 21.9 mph - N/A   Clear
3:53 AM 37.0 °F 27.0 °F 32.0 °F 82% 30.09 in 10.0 mi NW 18.4 mph - N/A   Clear
4:53 AM 36.0 °F 25.0 °F 32.0 °F 86% 30.09 in 10.0 mi NW 20.7 mph - N/A   Clear
5:53 AM 36.0 °F 25.6 °F 32.0 °F 86% 30.09 in 10.0 mi NW 18.4 mph - N/A   Clear
6:53 AM 35.1 °F 23.8 °F 32.0 °F 89% 30.09 in 10.0 mi NW 20.7 mph - N/A   Clear
7:53 AM 37.9 °F 27.3 °F 34.0 °F 86% 30.11 in 10.0 mi NW 21.9 mph 31.1 mph N/A   Clear
8:53 AM 41.0 °F 30.9 °F 33.1 °F 73% 30.11 in 10.0 mi NW 24.2 mph 34.5 mph N/A   Clear
10:53 AM 46.0 °F 36.5 °F 30.0 °F 54% 30.10 in 10.0 mi NW 31.1 mph 41.4 mph N/A   Mostly Cloudy
11:53 AM 46.9 °F - 27.0 °F 46% 30.10 in 10.0 mi NW 32.2 mph 41.4 mph N/A   Mostly Cloudy
12:53 PM 48.9 °F - 27.0 °F 43% 30.09 in 10.0 mi NNW 29.9 mph 42.6 mph N/A   Overcast
1:53 PM 48.0 °F - 25.0 °F 41% 30.09 in 10.0 mi NNW 32.2 mph 42.6 mph N/A   Overcast
2:53 PM 48.9 °F - 28.9 °F 46% 30.09 in 10.0 mi NNW 27.6 mph 36.8 mph N/A   Overcast
3:53 PM 50.0 °F - 33.1 °F 52% 30.09 in 10.0 mi North 24.2 mph 35.7 mph N/A   Overcast
4:53 PM 48.0 °F - 32.0 °F 54% 30.08 in 10.0 mi NNW 19.6 mph 33.4 mph N/A   Overcast
5:53 PM 50.0 °F - 30.0 °F 46% 30.07 in 10.0 mi NNW 25.3 mph 41.4 mph N/A   Overcast
6:53 PM 48.9 °F - 28.9 °F 46% 30.08 in 10.0 mi NNW 27.6 mph 36.8 mph N/A   Mostly Cloudy
7:53 PM 48.0 °F - 30.0 °F 50% 30.08 in 10.0 mi North 20.7 mph 28.8 mph N/A   Overcast
8:53 PM 46.9 °F - 30.9 °F 54% 30.08 in 10.0 mi North 23.0 mph 29.9 mph N/A   Overcast
9:53 PM 45.0 °F 38.9 °F 32.0 °F 60% 30.09 in 10.0 mi NNW 12.7 mph - N/A   Overcast
10:53 PM 44.1 °F 39.0 °F 32.0 °F 63% 30.09 in 10.0 mi NW 9.2 mph - N/A   Overcast
11:53 PM 46.9 °F - 32.0 °F 56% 30.08 in 10.0 mi NNW 23.0 mph 28.8 mph N/A   Overcast